QPF
0.00 0.00 0.00 0.00 0.00 0.00 0.00 0.00 0.00 0.00 0.00 0.00 0.00 0.00 0.00 0.00 0.00 0.00 0.00 0.00 0.00 0.00 0.00 0.00 0.00 0.00 0.00 0.00 0.00 0.00 0.00 0.00 0.00 0.00 0.00 0.00 0.00 0.01 0.01 0.01 0.02 0.03 0.01
0.00 0.00 0.00 0.00 0.00 0.00 0.00 0.00 0.00 0.00 0.00 0.00 0.00 0.00 0.00 0.00 0.00 0.00 0.00 0.00 0.00 0.00 0.00 0.00 0.00 0.00 0.00 0.00 0.00 0.00 0.00 0.00 0.00 0.00 0.00 0.00 0.00 0.00 0.00 0.00 0.02 0.02 0.01
0.00 0.00 0.00 0.00 0.00 0.00 0.00 0.00 0.00 0.00 0.00 0.00 0.00 0.00 0.00 0.00 0.00 0.00 0.00 0.00 0.00 0.00 0.00 0.00 0.00 0.00 0.00 0.00 0.00 0.00 0.00 0.00 0.00 0.00 0.00 0.00 0.00 0.00 0.00 0.00 0.00 0.00 0.00
0.00 0.00 0.00 0.00 0.00 0.00 0.00 0.00 0.00 0.00 0.00 0.00 0.00 0.00 0.00 0.00 0.00 0.00 0.00 0.00 0.00 0.00 0.00 0.00 0.00 0.00 0.00 0.00 0.00 0.00 0.00 0.00 0.00 0.00 0.00 0.00 0.00 0.00 0.00 0.01 0.00 0.01 0.01
0.00 0.00 0.00 0.00 0.00 0.00 0.00 0.00 0.00 0.00 0.00 0.00 0.00 0.00 0.00 0.00 0.00 0.00 0.00 0.00 0.00 0.00 0.00 0.00 0.00 0.00 0.00 0.00 0.00 0.00 0.00 0.00 0.00 0.00 0.00 0.00 0.00 0.00 0.01 0.02 0.02 0.02 0.01
0.00 0.00 0.00 0.00 0.00 0.00 0.00 0.00 0.00 0.00 0.00 0.00 0.00 0.00 0.00 0.00 0.00 0.00 0.00 0.00 0.00 0.00 0.00 0.00 0.00 0.00 0.00 0.00 0.00 0.00 0.00 0.00 0.00 0.00 0.00 0.00 0.00 0.00 0.01 0.03 0.05 0.05 0.03
0.00 0.00 0.00 0.00 0.00 0.00 0.00 0.00 0.00 0.00 0.00 0.00 0.00 0.00 0.00 0.00 0.00 0.00 0.00 0.00 0.00 0.00 0.00 0.00 0.00 0.00 0.00 0.00 0.00 0.00 0.00 0.00 0.00 0.00 0.00 0.00 0.01 0.00 0.01 0.06 0.11 0.10 0.07
0.00 0.00 0.00 0.00 0.00 0.00 0.00 0.00 0.00 0.00 0.00 0.00 0.00 0.00 0.00 0.00 0.00 0.00 0.00 0.00 0.00 0.00 0.00 0.00 0.00 0.00 0.00 0.00 0.00 0.00 0.00 0.00 0.00 0.00 0.00 0.00 0.00 0.00 0.01 0.06 0.12 0.13 0.10
0.00 0.00 0.00 0.00 0.00 0.00 0.00 0.00 0.00 0.00 0.00 0.00 0.00 0.00 0.00 0.00 0.00 0.00 0.00 0.00 0.00 0.00 0.00 0.00 0.01 0.01 0.01 0.01 0.01 0.01 0.01 0.01 0.00 0.00 0.00 0.00 0.00 0.00 0.01 0.05 0.11 0.14 0.12
0.00 0.00 0.00 0.00 0.00 0.00 0.00 0.00 0.00 0.00 0.00 0.00 0.00 0.00 0.00 0.00 0.00 0.00 0.00 0.00 0.00 0.00 0.01 0.01 0.01 0.02 0.02 0.02 0.01 0.01 0.01 0.01 0.00 0.00 0.00 0.00 0.00 0.00 0.01 0.03 0.08 0.13 0.14
0.00 0.00 0.00 0.00 0.00 0.00 0.00 0.00 0.00 0.00 0.00 0.00 0.00 0.00 0.00 0.00 0.00 0.01 0.00 0.00 0.01 0.01 0.01 0.01 0.01 0.02 0.04 0.02 0.02 0.02 0.02 0.01 0.01 0.01 0.00 0.00 0.00 0.00 0.01 0.02 0.05 0.10 0.12
0.00 0.00 0.00 0.00 0.00 0.00 0.00 0.00 0.00 0.00 0.00 0.00 0.00 0.00 0.00 0.00 0.01 0.00 0.00 0.00 0.01 0.01 0.01 0.01 0.04 0.05 0.06 0.06 0.07 0.06 0.02 0.01 0.02 0.01 0.00 0.01 0.01 0.01 0.02 0.03 0.05 0.08 0.11
0.00 0.00 0.00 0.00 0.00 0.00 0.00 0.00 0.00 0.00 0.00 0.00 0.00 0.00 0.01 0.01 0.01 0.01 0.00 0.00 0.01 0.00 0.01 0.03 0.06 0.07 0.10 0.12 0.12 0.10 0.05 0.04 0.02 0.01 0.01 0.02 0.03 0.04 0.05 0.06 0.06 0.08 0.10
0.00 0.00 0.00 0.00 0.00 0.00 0.00 0.00 0.00 0.00 0.00 0.00 0.00 0.00 0.01 0.01 0.01 0.01 0.01 0.01 0.01 0.01 0.01 0.02 0.04 0.07 0.11 0.11 0.10 0.10 0.09 0.07 0.04 0.04 0.04 0.02 0.03 0.06 0.09 0.09 0.08 0.09 0.08
0.00 0.00 0.00 0.00 0.00 0.00 0.00 0.01 0.00 0.00 0.00 0.00 0.00 0.00 0.01 0.01 0.01 0.02 0.03 0.03 0.02 0.03 0.04 0.04 0.05 0.08 0.12 0.13 0.11 0.11 0.10 0.10 0.07 0.07 0.05 0.04 0.05 0.07 0.11 0.13 0.12 0.11 0.11
0.00 0.00 0.01 0.01 0.01 0.01 0.01 0.01 0.01 0.01 0.00 0.00 0.01 0.01 0.01 0.02 0.04 0.07 0.07 0.06 0.05 0.07 0.08 0.11 0.11 0.13 0.14 0.17 0.14 0.15 0.14 0.12 0.09 0.09 0.08 0.08 0.06 0.07 0.11 0.14 0.12 0.11 0.11
0.00 0.00 0.01 0.02 0.03 0.02 0.03 0.02 0.02 0.02 0.02 0.01 0.01 0.02 0.04 0.05 0.07 0.08 0.08 0.07 0.09 0.15 0.15 0.13 0.13 0.16 0.15 0.16 0.16 0.18 0.17 0.13 0.11 0.11 0.10 0.09 0.06 0.04 0.07 0.11 0.10 0.09 0.09
0.00 0.01 0.01 0.02 0.04 0.04 0.03 0.03 0.03 0.02 0.02 0.02 0.03 0.04 0.07 0.08 0.09 0.09 0.08 0.08 0.14 0.18 0.19 0.18 0.18 0.20 0.19 0.20 0.20 0.20 0.20 0.17 0.14 0.13 0.11 0.09 0.08 0.03 0.03 0.06 0.08 0.06 0.07
0.01 0.01 0.01 0.03 0.05 0.05 0.04 0.05 0.04 0.02 0.02 0.03 0.04 0.05 0.07 0.09 0.11 0.12 0.11 0.11 0.18 0.22 0.21 0.20 0.23 0.24 0.26 0.26 0.30 0.29 0.21 0.15 0.13 0.12 0.09 0.07 0.08 0.06 0.04 0.04 0.04 0.03 0.04
0.01 0.01 0.03 0.04 0.04 0.03 0.02 0.02 0.02 0.01 0.02 0.03 0.04 0.06 0.08 0.09 0.11 0.13 0.13 0.15 0.20 0.20 0.18 0.19 0.24 0.30 0.33 0.38 0.43 0.35 0.24 0.17 0.14 0.11 0.08 0.06 0.06 0.05 0.04 0.03 0.03 0.02 0.01
0.01 0.01 0.01 0.01 0.00 0.00 0.00 0.00 0.00 0.01 0.01 0.01 0.02 0.02 0.03 0.04 0.06 0.08 0.08 0.11 0.16 0.18 0.20 0.27 0.33 0.36 0.38 0.46 0.49 0.40 0.29 0.19 0.15 0.12 0.09 0.06 0.03 0.03 0.04 0.03 0.03 0.03 0.03
0.00 0.00 0.00 0.00 0.00 0.00 0.00 0.00 0.00 0.00 0.00 0.00 0.00 0.00 0.01 0.02 0.02 0.03 0.03 0.04 0.06 0.07 0.09 0.12 0.16 0.19 0.23 0.34 0.37 0.38 0.30 0.21 0.16 0.13 0.10 0.05 0.03 0.03 0.04 0.03 0.04 0.04 0.04
0.00 0.00 0.00 0.00 0.00 0.00 0.00 0.00 0.00 0.00 0.00 0.00 0.00 0.00 0.00 0.00 0.00 0.01 0.01 0.02 0.02 0.03 0.03 0.04 0.08 0.12 0.13 0.18 0.22 0.26 0.25 0.20 0.15 0.10 0.06 0.04 0.04 0.04 0.04 0.04 0.04 0.04 0.04
0.00 0.00 0.00 0.00 0.00 0.00 0.00 0.00 0.00 0.00 0.00 0.00 0.00 0.00 0.00 0.00 0.00 0.00 0.00 0.00 0.01 0.01 0.02 0.02 0.03 0.05 0.07 0.09 0.12 0.13 0.13 0.14 0.14 0.11 0.07 0.05 0.05 0.05 0.04 0.05 0.05 0.05 0.04
0.00 0.00 0.00 0.00 0.00 0.00 0.00 0.00 0.01 0.00 0.00 0.00 0.00 0.00 0.00 0.00 0.00 0.00 0.00 0.00 0.00 0.00 0.01 0.01 0.02 0.03 0.04 0.06 0.07 0.07 0.08 0.08 0.09 0.09 0.07 0.07 0.07 0.04 0.03 0.04 0.05 0.05 0.04
0.01 0.01 0.00 0.00 0.00 0.01 0.01 0.01 0.01 0.01 0.01 0.01 0.00 0.00 0.00 0.00 0.00 0.00 0.00 0.00 0.00 0.00 0.00 0.01 0.01 0.02 0.03 0.03 0.05 0.06 0.07 0.06 0.06 0.07 0.06 0.07 0.08 0.07 0.05 0.04 0.04 0.04 0.04
MSLP
1009.78 1009.96 1010.33 1010.84 1011.41 1011.96 1012.42 1012.75 1012.94 1013.05 1013.12 1013.22 1013.40 1013.67 1014.03 1014.44 1014.85 1015.19 1015.44 1015.58 1015.63 1015.61 1015.57 1015.54 1015.55 1015.61 1015.69 1015.79 1015.88 1015.93 1015.94 1015.91 1015.86 1015.81 1015.78 1015.79 1015.84 1015.94 1016.07 1016.22 1016.36 1016.50 1016.62
1009.55 1009.84 1010.32 1010.94 1011.61 1012.22 1012.72 1013.06 1013.24 1013.31 1013.35 1013.41 1013.56 1013.82 1014.18 1014.59 1015.00 1015.35 1015.58 1015.71 1015.74 1015.70 1015.66 1015.64 1015.67 1015.76 1015.89 1016.02 1016.13 1016.19 1016.19 1016.14 1016.06 1015.99 1015.95 1015.95 1016.02 1016.14 1016.28 1016.44 1016.58 1016.71 1016.80
1009.35 1009.74 1010.32 1011.02 1011.76 1012.43 1012.97 1013.33 1013.52 1013.58 1013.60 1013.65 1013.79 1014.03 1014.37 1014.76 1015.14 1015.45 1015.65 1015.75 1015.75 1015.71 1015.67 1015.68 1015.75 1015.89 1016.06 1016.22 1016.33 1016.38 1016.35 1016.26 1016.14 1016.04 1015.98 1015.99 1016.07 1016.20 1016.37 1016.54 1016.69 1016.80 1016.89
1009.22 1009.68 1010.32 1011.08 1011.86 1012.58 1013.15 1013.53 1013.74 1013.82 1013.85 1013.91 1014.04 1014.27 1014.58 1014.93 1015.26 1015.52 1015.67 1015.72 1015.70 1015.66 1015.64 1015.69 1015.82 1016.00 1016.21 1016.39 1016.49 1016.51 1016.43 1016.28 1016.12 1015.97 1015.90 1015.91 1016.00 1016.16 1016.35 1016.54 1016.70 1016.82 1016.90
1009.17 1009.66 1010.33 1011.12 1011.92 1012.66 1013.24 1013.65 1013.89 1014.01 1014.06 1014.14 1014.27 1014.49 1014.77 1015.07 1015.35 1015.54 1015.64 1015.65 1015.61 1015.58 1015.60 1015.70 1015.88 1016.11 1016.35 1016.53 1016.61 1016.58 1016.44 1016.23 1016.00 1015.82 1015.73 1015.74 1015.85 1016.04 1016.26 1016.47 1016.64 1016.77 1016.86
1009.20 1009.70 1010.37 1011.14 1011.94 1012.67 1013.26 1013.69 1013.95 1014.10 1014.20 1014.30 1014.45 1014.66 1014.91 1015.17 1015.38 1015.51 1015.56 1015.54 1015.50 1015.48 1015.54 1015.69 1015.92 1016.20 1016.45 1016.62 1016.67 1016.58 1016.38 1016.10 1015.82 1015.61 1015.51 1015.53 1015.66 1015.88 1016.13 1016.36 1016.55 1016.69 1016.79
1009.30 1009.79 1010.42 1011.16 1011.92 1012.62 1013.20 1013.63 1013.92 1014.10 1014.23 1014.36 1014.52 1014.73 1014.96 1015.17 1015.33 1015.42 1015.42 1015.38 1015.34 1015.35 1015.45 1015.64 1015.91 1016.21 1016.47 1016.62 1016.63 1016.49 1016.22 1015.90 1015.58 1015.35 1015.25 1015.29 1015.45 1015.70 1015.98 1016.23 1016.44 1016.58 1016.69
1009.47 1009.92 1010.50 1011.18 1011.89 1012.54 1013.08 1013.50 1013.79 1013.99 1014.14 1014.29 1014.47 1014.67 1014.88 1015.06 1015.18 1015.22 1015.20 1015.15 1015.12 1015.15 1015.27 1015.50 1015.79 1016.09 1016.34 1016.46 1016.43 1016.25 1015.94 1015.58 1015.25 1015.03 1014.94 1015.02 1015.22 1015.50 1015.80 1016.07 1016.28 1016.43 1016.52
1009.66 1010.06 1010.59 1011.20 1011.83 1012.41 1012.91 1013.29 1013.57 1013.77 1013.93 1014.09 1014.27 1014.47 1014.66 1014.82 1014.91 1014.93 1014.89 1014.83 1014.80 1014.84 1014.98 1015.21 1015.50 1015.79 1016.01 1016.10 1016.04 1015.82 1015.50 1015.14 1014.83 1014.63 1014.59 1014.70 1014.94 1015.25 1015.57 1015.85 1016.06 1016.19 1016.27
1009.85 1010.21 1010.67 1011.21 1011.75 1012.26 1012.69 1013.03 1013.28 1013.46 1013.62 1013.78 1013.96 1014.14 1014.32 1014.45 1014.53 1014.53 1014.49 1014.42 1014.38 1014.42 1014.54 1014.76 1015.02 1015.28 1015.46 1015.52 1015.44 1015.22 1014.91 1014.58 1014.30 1014.15 1014.16 1014.32 1014.60 1014.93 1015.26 1015.54 1015.74 1015.85 1015.91
1010.00 1010.32 1010.73 1011.19 1011.65 1012.09 1012.45 1012.73 1012.94 1013.10 1013.24 1013.38 1013.54 1013.72 1013.88 1014.00 1014.06 1014.06 1014.01 1013.93 1013.88 1013.89 1013.99 1014.16 1014.38 1014.59 1014.73 1014.77 1014.68 1014.47 1014.19 1013.91 1013.70 1013.61 1013.67 1013.87 1014.17 1014.52 1014.85 1015.12 1015.30 1015.39 1015.43
1010.09 1010.38 1010.74 1011.14 1011.53 1011.89 1012.19 1012.42 1012.59 1012.71 1012.82 1012.94 1013.08 1013.24 1013.38 1013.49 1013.55 1013.54 1013.48 1013.40 1013.33 1013.31 1013.36 1013.47 1013.63 1013.79 1013.89 1013.91 1013.83 1013.66 1013.43 1013.22 1013.07 1013.04 1013.15 1013.38 1013.69 1014.03 1014.35 1014.59 1014.75 1014.82 1014.85
1010.09 1010.37 1010.69 1011.04 1011.38 1011.69 1011.94 1012.13 1012.25 1012.34 1012.42 1012.51 1012.62 1012.75 1012.88 1012.98 1013.03 1013.02 1012.96 1012.86 1012.77 1012.71 1012.70 1012.76 1012.86 1012.97 1013.05 1013.06 1013.00 1012.88 1012.72 1012.57 1012.48 1012.50 1012.63 1012.86 1013.16 1013.48 1013.76 1013.98 1014.11 1014.17 1014.19
1010.01 1010.28 1010.58 1010.90 1011.22 1011.49 1011.71 1011.87 1011.96 1012.02 1012.06 1012.11 1012.19 1012.30 1012.40 1012.49 1012.54 1012.53 1012.46 1012.36 1012.24 1012.15 1012.10 1012.10 1012.15 1012.22 1012.28 1012.31 1012.28 1012.21 1012.12 1012.03 1011.99 1012.03 1012.16 1012.37 1012.63 1012.90 1013.14 1013.32 1013.43 1013.48 1013.51
1009.85 1010.12 1010.41 1010.73 1011.03 1011.30 1011.51 1011.65 1011.73 1011.76 1011.77 1011.79 1011.83 1011.90 1011.98 1012.05 1012.09 1012.08 1012.01 1011.90 1011.77 1011.65 1011.57 1011.53 1011.54 1011.60 1011.66 1011.71 1011.73 1011.71 1011.67 1011.63 1011.62 1011.66 1011.76 1011.91 1012.11 1012.31 1012.49 1012.63 1012.72 1012.78 1012.82
1009.62 1009.89 1010.20 1010.53 1010.85 1011.13 1011.35 1011.50 1011.57 1011.58 1011.56 1011.54 1011.54 1011.57 1011.62 1011.67 1011.70 1011.69 1011.62 1011.50 1011.37 1011.23 1011.12 1011.06 1011.06 1011.10 1011.18 1011.26 1011.32 1011.36 1011.36 1011.35 1011.34 1011.35 1011.40 1011.48 1011.59 1011.71 1011.83 1011.93 1012.02 1012.08 1012.15
1009.35 1009.63 1009.96 1010.31 1010.66 1010.98 1011.22 1011.38 1011.46 1011.46 1011.41 1011.36 1011.32 1011.31 1011.32 1011.34 1011.36 1011.33 1011.27 1011.15 1011.01 1010.86 1010.74 1010.67 1010.66 1010.71 1010.80 1010.91 1011.01 1011.08 1011.12 1011.12 1011.09 1011.05 1011.03 1011.02 1011.04 1011.08 1011.14 1011.21 1011.29 1011.37 1011.47
1009.09 1009.38 1009.72 1010.10 1010.49 1010.84 1011.11 1011.30 1011.38 1011.38 1011.31 1011.22 1011.14 1011.09 1011.07 1011.06 1011.05 1011.02 1010.95 1010.84 1010.69 1010.54 1010.41 1010.32 1010.30 1010.35 1010.45 1010.58 1010.71 1010.80 1010.85 1010.84 1010.78 1010.68 1010.58 1010.48 1010.41 1010.38 1010.39 1010.43 1010.51 1010.62 1010.76
1008.87 1009.16 1009.51 1009.91 1010.33 1010.71 1011.01 1011.22 1011.31 1011.31 1011.23 1011.12 1011.00 1010.92 1010.86 1010.83 1010.81 1010.77 1010.69 1010.57 1010.41 1010.25 1010.10 1009.99 1009.96 1009.99 1010.08 1010.21 1010.34 1010.43 1010.47 1010.43 1010.33 1010.17 1009.99 1009.81 1009.67 1009.57 1009.54 1009.57 1009.66 1009.80 1009.98
1008.73 1009.01 1009.36 1009.76 1010.19 1010.58 1010.90 1011.12 1011.23 1011.23 1011.14 1011.02 1010.89 1010.79 1010.72 1010.67 1010.64 1010.59 1010.50 1010.37 1010.20 1010.01 1009.83 1009.69 1009.62 1009.62 1009.68 1009.78 1009.88 1009.94 1009.95 1009.87 1009.72 1009.50 1009.25 1009.01 1008.80 1008.66 1008.60 1008.62 1008.72 1008.89 1009.10
1008.71 1008.95 1009.27 1009.66 1010.07 1010.46 1010.78 1011.00 1011.12 1011.12 1011.05 1010.93 1010.81 1010.71 1010.64 1010.60 1010.56 1010.51 1010.41 1010.27 1010.08 1009.86 1009.64 1009.45 1009.32 1009.26 1009.26 1009.30 1009.35 1009.37 1009.32 1009.19 1008.98 1008.71 1008.40 1008.11 1007.85 1007.67 1007.58 1007.60 1007.71 1007.89 1008.14
1008.81 1009.01 1009.28 1009.62 1009.99 1010.34 1010.64 1010.86 1010.98 1011.00 1010.94 1010.85 1010.75 1010.68 1010.63 1010.61 1010.59 1010.54 1010.45 1010.30 1010.08 1009.83 1009.56 1009.32 1009.12 1008.98 1008.90 1008.86 1008.83 1008.77 1008.66 1008.47 1008.20 1007.88 1007.52 1007.18 1006.89 1006.68 1006.57 1006.57 1006.68 1006.87 1007.13
1009.06 1009.18 1009.38 1009.65 1009.95 1010.25 1010.51 1010.70 1010.81 1010.84 1010.82 1010.77 1010.71 1010.68 1010.68 1010.69 1010.70 1010.68 1010.60 1010.45 1010.22 1009.94 1009.63 1009.32 1009.05 1008.83 1008.66 1008.52 1008.40 1008.25 1008.06 1007.80 1007.48 1007.11 1006.71 1006.34 1006.01 1005.77 1005.64 1005.62 1005.71 1005.89 1006.15
1009.43 1009.48 1009.59 1009.76 1009.97 1010.19 1010.39 1010.54 1010.64 1010.68 1010.68 1010.67 1010.67 1010.69 1010.74 1010.80 1010.85 1010.87 1010.81 1010.67 1010.45 1010.16 1009.82 1009.47 1009.13 1008.83 1008.57 1008.34 1008.12 1007.88 1007.60 1007.28 1006.89 1006.48 1006.05 1005.65 1005.30 1005.04 1004.88 1004.83 1004.89 1005.05 1005.28
1009.91 1009.87 1009.88 1009.95 1010.05 1010.18 1010.30 1010.40 1010.46 1010.50 1010.52 1010.54 1010.58 1010.65 1010.75 1010.86 1010.95 1011.01 1010.99 1010.88 1010.68 1010.40 1010.05 1009.68 1009.31 1008.95 1008.61 1008.29 1007.98 1007.65 1007.29 1006.89 1006.46 1006.00 1005.55 1005.13 1004.77 1004.50 1004.32 1004.25 1004.27 1004.40 1004.60
1010.46 1010.34 1010.25 1010.21 1010.20 1010.22 1010.25 1010.28 1010.30 1010.31 1010.32 1010.36 1010.42 1010.52 1010.64 1010.78 1010.91 1011.00 1011.02 1010.95 1010.79 1010.55 1010.23 1009.87 1009.48 1009.09 1008.70 1008.31 1007.91 1007.50 1007.06 1006.60 1006.11 1005.63 1005.17 1004.75 1004.39 1004.12 1003.95 1003.87 1003.88 1003.98 1004.16
Thickness
5850 5844 5828 5824 5821 5818 5815 5812 5809 5805 5801 5797 5793 5790 5787 5785 5782 5780 5778 5775 5773 5772 5770 5768 5766 5764 5763 5761 5760 5758 5756 5755 5753 5752 5750 5749 5748 5747 5746 5746 5747 5748 5744
5854 5844 5829 5824 5820 5817 5814 5811 5807 5804 5800 5796 5793 5789 5787 5784 5782 5779 5777 5775 5773 5771 5769 5767 5766 5764 5762 5760 5759 5757 5755 5754 5752 5751 5750 5749 5747 5746 5745 5745 5746 5748 5744
5853 5843 5830 5824 5820 5816 5813 5809 5806 5802 5799 5795 5792 5789 5786 5784 5781 5779 5777 5775 5773 5771 5769 5767 5765 5763 5761 5759 5758 5756 5755 5753 5752 5751 5751 5754 5750 5746 5745 5744 5744 5743 5742
5851 5842 5832 5823 5819 5815 5811 5808 5804 5801 5797 5794 5791 5788 5785 5783 5781 5779 5777 5775 5773 5771 5769 5766 5764 5762 5760 5758 5757 5755 5754 5753 5752 5752 5756 5759 5755 5747 5745 5744 5743 5742 5741
5849 5841 5831 5822 5817 5814 5810 5806 5803 5799 5796 5793 5790 5787 5784 5782 5780 5778 5776 5774 5772 5770 5768 5766 5764 5762 5759 5757 5756 5755 5753 5752 5752 5753 5759 5757 5755 5748 5745 5744 5743 5742 5741
5847 5841 5829 5820 5816 5812 5808 5804 5801 5798 5794 5791 5788 5786 5783 5781 5779 5778 5776 5774 5772 5770 5768 5766 5764 5762 5760 5757 5755 5754 5753 5752 5752 5758 5759 5757 5756 5750 5746 5744 5743 5742 5741
5846 5840 5829 5818 5814 5809 5806 5802 5799 5796 5793 5790 5788 5785 5783 5781 5779 5777 5775 5774 5772 5770 5768 5766 5764 5762 5760 5758 5756 5754 5753 5752 5754 5761 5760 5758 5756 5751 5747 5745 5744 5743 5742
5844 5838 5827 5816 5812 5808 5804 5801 5798 5795 5792 5790 5787 5784 5782 5780 5778 5777 5775 5773 5771 5770 5768 5766 5764 5763 5761 5759 5757 5755 5753 5752 5757 5762 5762 5760 5757 5752 5748 5746 5745 5744 5743
5842 5836 5827 5818 5811 5806 5802 5799 5796 5794 5791 5788 5786 5783 5781 5779 5777 5776 5774 5773 5771 5770 5768 5767 5765 5763 5762 5760 5758 5757 5755 5754 5755 5763 5764 5763 5759 5754 5750 5748 5747 5746 5744
5837 5834 5827 5821 5815 5809 5804 5798 5795 5792 5789 5787 5784 5782 5780 5778 5777 5775 5774 5773 5771 5770 5768 5767 5766 5764 5763 5761 5759 5758 5757 5755 5759 5764 5765 5764 5759 5755 5751 5750 5749 5748 5747
5828 5828 5825 5823 5816 5812 5808 5803 5795 5791 5788 5785 5783 5781 5778 5780 5782 5779 5777 5774 5771 5769 5768 5767 5766 5764 5763 5762 5761 5759 5758 5761 5767 5768 5768 5765 5760 5755 5753 5752 5751 5750 5749
5823 5823 5821 5821 5816 5811 5808 5803 5798 5794 5792 5787 5787 5785 5782 5782 5781 5780 5778 5773 5770 5768 5767 5766 5765 5764 5763 5766 5766 5761 5762 5765 5768 5770 5769 5764 5759 5756 5754 5753 5752 5751 5750
5825 5821 5818 5815 5811 5808 5805 5802 5799 5796 5793 5789 5786 5782 5780 5780 5779 5778 5777 5775 5771 5769 5768 5770 5767 5767 5768 5767 5766 5765 5765 5767 5769 5769 5769 5764 5759 5756 5754 5753 5753 5752 5751
5824 5819 5817 5812 5806 5801 5800 5798 5794 5792 5790 5788 5785 5780 5778 5776 5775 5775 5773 5773 5771 5770 5769 5768 5768 5769 5767 5766 5766 5765 5764 5763 5765 5765 5765 5761 5757 5755 5754 5753 5753 5753 5752
5820 5817 5814 5809 5802 5797 5792 5789 5789 5787 5786 5784 5779 5776 5773 5772 5771 5770 5768 5766 5765 5766 5765 5763 5764 5764 5763 5762 5762 5762 5761 5762 5762 5762 5761 5758 5755 5754 5753 5753 5752 5752 5752
5817 5814 5811 5804 5799 5792 5787 5783 5783 5782 5779 5777 5776 5773 5769 5767 5766 5764 5762 5761 5761 5760 5759 5759 5758 5757 5757 5758 5757 5757 5756 5756 5757 5756 5757 5756 5753 5752 5752 5751 5752 5752 5751
5815 5812 5806 5801 5796 5789 5784 5781 5780 5778 5776 5774 5771 5768 5764 5762 5760 5758 5758 5758 5757 5755 5753 5753 5752 5750 5751 5752 5751 5751 5751 5751 5752 5751 5751 5751 5752 5751 5751 5750 5750 5750 5750
5813 5807 5802 5799 5793 5786 5780 5776 5775 5773 5771 5769 5766 5764 5761 5758 5755 5754 5754 5754 5753 5750 5749 5748 5747 5744 5744 5745 5745 5746 5747 5747 5747 5746 5745 5746 5747 5749 5750 5749 5749 5749 5749
5806 5800 5794 5791 5786 5781 5776 5772 5769 5767 5765 5764 5762 5760 5757 5754 5752 5750 5750 5750 5748 5746 5745 5745 5744 5740 5738 5738 5738 5738 5740 5741 5742 5742 5742 5742 5743 5744 5746 5749 5748 5748 5748
5799 5794 5788 5783 5778 5775 5772 5767 5764 5762 5761 5759 5757 5754 5751 5749 5747 5746 5745 5745 5743 5742 5741 5740 5737 5736 5734 5733 5732 5733 5734 5737 5737 5737 5737 5739 5740 5741 5743 5746 5747 5748 5747
5790 5785 5780 5775 5771 5768 5765 5762 5758 5756 5755 5754 5753 5749 5746 5744 5742 5741 5741 5740 5739 5738 5737 5736 5734 5732 5731 5729 5724 5725 5728 5732 5733 5734 5735 5736 5738 5739 5740 5742 5744 5747 5748
5781 5777 5772 5768 5765 5762 5759 5755 5751 5749 5749 5748 5746 5742 5740 5738 5736 5738 5735 5734 5735 5732 5731 5731 5729 5727 5728 5727 5720 5717 5719 5725 5730 5735 5734 5733 5735 5737 5738 5741 5742 5743 5745
5771 5767 5765 5761 5757 5755 5752 5749 5745 5742 5741 5741 5739 5737 5735 5732 5731 5729 5728 5728 5727 5727 5727 5725 5723 5722 5721 5723 5721 5715 5713 5718 5726 5732 5733 5733 5734 5735 5737 5738 5740 5742 5742
5761 5760 5756 5752 5749 5746 5744 5742 5738 5733 5732 5732 5730 5731 5729 5727 5725 5724 5722 5721 5720 5721 5720 5719 5721 5718 5715 5716 5717 5717 5716 5718 5713 5719 5727 5731 5732 5732 5733 5735 5738 5740 5740
5753 5751 5748 5744 5741 5739 5736 5733 5730 5729 5729 5729 5727 5724 5721 5723 5720 5719 5716 5715 5714 5714 5713 5711 5710 5710 5711 5710 5711 5713 5713 5712 5712 5711 5715 5723 5727 5730 5732 5732 5733 5736 5738
5743 5742 5739 5735 5732 5732 5729 5727 5724 5722 5721 5720 5718 5718 5718 5719 5717 5715 5712 5709 5708 5708 5707 5705 5704 5704 5704 5704 5704 5706 5707 5708 5711 5711 5712 5716 5719 5724 5727 5729 5730 5731 5732